Weather in Carletonville

South Africa     26°21′24″S   27°23′59″E
temp.,
°C
wind,
m/s
gust,
m/s
humid.,
%
clouds,
%
prec.,
mm/h
press.,
hPa
HPBL,
m
18 may, wed
wed1823:00+11wsw12760 0.1 102514
02:00+10sw11813 0.1 102411
05:00+9nne11830 0.0 102311
08:00+11ne22692 0.0 102482
11:00+16nnw334330 0.0 10221983
14:00+16nw3341100 0.0 10201093
17:00+15w224096 0.0 101973
20:00+13nw235179 0.0 102171
19 may, thu
thu1923:00+10wnw33645 0.0 102239
02:00+9w11715 0.0 102111
05:00+9nnw00725 0.0 102010
08:00+11nne22615 0.0 102178
11:00+17nw45395 0.0 10192013
14:00+19nw44324 0.0 10152337
17:00+16nw353855 0.0 1016143
20:00+12nnw33465 0.0 101833
20 may, fri
fri2023:00+11n34490 0.0 101855
02:00+11nne44500 0.0 101654
05:00+10nne41053100 0.0 1016175
08:00+12nne5125270 0.0 1016377
11:00+18n9113725 0.0 10141117
14:00+20n9133481 0.0 10102471
17:00+16nnw7115480 0.3 1011958
20:00+11w578498 4.4 1016597
21 may, sat
sat2123:00+6wsw4581100 0.5 1020338
02:00+4wsw25750 0.5 1021149
05:00+3ssw23670 0.0 102170
08:00+4ese22560 0.0 1023305
11:00+8wnw22410 0.0 10201008
14:00+11w333618 0.0 10171703
17:00+10wnw5543100 0.0 1017447
20:00+6wsw4471100 0.0 1021351
22 may, sun
sun2223:00+6ssw567188 0.3 1022492
02:00+5s477398 0.3 1022215
05:00+6se6138213 0.2 1021545
08:00+9ese813740 0.2 1023782
11:00+13ese56545 0.0 10231180
14:00+15se564553 0.3 10201877
17:00+14sse584425 0.0 1020429
20:00+10ese48733 0.0 1023230